Clinton, British Columbia

3:25 PM PDT on April 25, 2018 (GMT -0700)
Clinton

Weather History for CWCL - February, 2014

Change the Weather History Date:

Wednesday, February 5, 2014

  Actual Average Record
Temperature  
Mean Temperature -6 °F -  
Max Temperature 5 °F 32 °F 43 °F (2016)
Min Temperature -17 °F 16 °F -17 °F (2014)
Degree Days  
Heating Degree Days 71    
Moisture  
Dew Point -20 °F    
Average Humidity 49    
Maximum Humidity 60    
Minimum Humidity 27    
Precipitation  
Precipitation 0.02 in - - ()
Sea Level Pressure  
Sea Level Pressure 30.76 in    
Wind  
Wind Speed 3 mph ()    
Max Wind Speed 10 mph    
Max Gust Speed -    
Visibility 9.0 miles    
Events      
Averages and records for this station are not official NWS values.
T = Trace of Precipitation, MM = Missing Value Source: Averaged Metar Reports

Daily Weather History Graph

Daily Weather History Graph

Search for Another Location

Airport or City:

Astronomy

Feb. 05, 2014 Rise Set
Actual Time 7:36 AM PST 5:04 PM PST
Civil Twilight 7:01 AM PST 5:39 PM PST
Nautical Twilight 6:21 AM PST 6:19 PM PST
Astronomical Twilight 5:43 AM PST 6:57 PM PST
Moon 10:06 AM PST (2/5) No Moon Set
Length of Visible Light 10h 38m
Length of Day
9h 27m
Waxing Crescent, 40% of the Moon is Illuminated
Feb 5
Waxing Crescent
Feb 6
First Quarter
Feb 14
Full
Feb 22
Last Quarter
Mar 1
New

Hourly Weather History & Observations

Time (PST) Temp. Windchill Dew Point Humidity Pressure Visibility Wind Dir Wind Speed Gust Speed Precip Events Conditions
12:00 AM -11.2 °F - -22.0 °F 59% 30.78 in 9.0 mi West 2.3 mph - N/A   Unknown
1:00 AM -9 °F - -20 °F 41% 30.76 in 9 mi South 2.3 mph - -  
1:00 AM -9.4 °F - -20.2 °F 59% 30.76 in 9.0 mi Calm Calm - N/A   Unknown
2:00 AM -9.4 °F - -20.2 °F 59% 30.77 in 9.0 mi Calm Calm - N/A   Unknown
3:00 AM -13.0 °F - -23.8 °F 59% 30.79 in 9.0 mi North 2.3 mph - N/A   Unknown
4:00 AM -15 °F - -27 °F 37% 30.80 in 9 mi Calm Calm - -  
4:00 AM -14.8 °F - -27.4 °F 53% 30.80 in 9.0 mi Calm Calm - N/A   Unknown
5:00 AM -14.8 °F - -27.4 °F 53% 30.82 in 9.0 mi NNE 2.3 mph - N/A   Unknown
6:00 AM -16.6 °F - -29.2 °F 53% 30.82 in 9.0 mi Calm Calm - N/A   Unknown
7:00 AM -17 °F - -29 °F 35% 30.82 in 9 mi Calm Calm - -  
7:00 AM -16.6 °F - -29.2 °F 53% 30.82 in 9.0 mi Calm Calm - N/A   Unknown
8:00 AM -16.6 °F - -29.2 °F 53% 30.84 in 9.0 mi ENE 2.3 mph - N/A   Unknown
9:00 AM -13.0 °F - -23.8 °F 59% 30.83 in 9.0 mi East 2.3 mph - N/A   Unknown
10:00 AM -6 °F - -18 °F 38% 30.81 in 9 mi NE 4.6 mph - -  
10:00 AM -5.8 °F -19.9 °F -18.4 °F 55% 30.81 in 9.0 mi NNE 6.9 mph - N/A   Unknown
11:00 AM -4.0 °F -14.6 °F -20.2 °F 46% 30.82 in 9.0 mi East 4.6 mph - N/A   Unknown
12:00 PM -2.2 °F -15.6 °F -16.6 °F 50% 30.79 in 9.0 mi NNE 6.9 mph - N/A   Unknown
1:00 PM 1 °F - -14 °F 31% 30.76 in 9 mi NNE 9.2 mph - -  
1:00 PM 1.4 °F -14.5 °F -14.8 °F 47% 30.76 in 9.0 mi NNE 10.4 mph - N/A   Unknown
2:00 PM 3.2 °F -6.2 °F -13.0 °F 47% 30.73 in 9.0 mi NNW 4.6 mph - N/A   Unknown
3:00 PM 5.0 °F -4.1 °F -13.0 °F 43% 30.71 in 9.0 mi NNW 4.6 mph - N/A   Unknown
4:00 PM 4 °F - -14 °F 27% 30.71 in 9 mi NNW 3.5 mph - -  
4:00 PM 5.0 °F -2.1 °F -13.0 °F 43% 30.71 in 9.0 mi NNW 3.5 mph - N/A   Unknown
5:00 PM -2.2 °F -12.5 °F -14.8 °F 55% 30.73 in 9.0 mi NNW 4.6 mph - N/A   Unknown
6:00 PM -5.8 °F -18.4 °F -16.6 °F 60% 30.73 in 9.0 mi WNW 5.8 mph - N/A   Unknown
7:00 PM -4 °F - -16 °F 39% 30.72 in 9 mi NW 5.8 mph - -  
7:00 PM -4.0 °F -16.3 °F -16.6 °F 55% 30.72 in 9.0 mi NW 5.8 mph - N/A   Unknown
8:00 PM -4.0 °F -16.3 °F -16.6 °F 55% 30.71 in 9.0 mi NW 5.8 mph - N/A   Unknown
9:00 PM -4.0 °F -16.3 °F -16.6 °F 55% 30.68 in 9.0 mi NW 5.8 mph - N/A   Unknown
10:00 PM -8 °F - -20 °F 39% 30.66 in 9 mi Calm Calm - -  
10:00 PM -7.6 °F - -20.2 °F 54% 30.66 in 9.0 mi Calm Calm - N/A   Unknown
11:00 PM -13.0 °F - -23.8 °F 59% 30.66 in 9.0 mi South 2.3 mph - N/A   Unknown